Погода в Нахчиване

Погода в Нахчиване : погода сейчас, прогноз погоды и архив. Всё, что Вы хотите узнать о погоде в Нахчиване!

Поиск расширенной информации на нашем сайте:

Другие новости

Новости СМИ2

Главная страница сайта

Новости сайта

02.10.2013

Напоминаем, что на нашем новом сайте вы можете получить высокодетализированные прогнозы погоды по пунктам России, СНГ и мира (включающие важные для авиации метеовеличины, такие как направление и скорость ветра, видимость, явления погоды, количество и форма облачности, нижняя и верхняя граница облачности), а также ознакомиться с разнообразными материалами по авиационной метеорологии и подборкой полезных ссылок на эту тему.

Сайт Метеоцентр.Азия посвящён разработке технологий оптимизации авиаметеорологического обслуживания, включая проектирование и перспективное создание нескольких автоматизированных авиаметеорологических систем:
- система выпуска высокодетальных прогностических карт явлений погоды для нижнего воздушного пространства по России и ближнему зарубежью;
- система верификации прогнозов TAF (выпускаемых синоптиками официальных АМСГ РФ и ближнего зарубежья) и AUTOTAF (выпускаемых сайтом Метеоцентр.Азия) - выявление ошибок, онлайн-сопоставление с фактической погодой METAR, автоматическое внесение коррективов в прогнозы при резком отклонении фактической погоды от прогноза, подсчёт оправдываемости прогнозов по элементам и в целом;
- система обработки, анализа и отображения авиаметеорологической информации для применения провайдерами метеорологической информации.


Погода в Нахчиване - сегодня

Время (UTC), дата Ветер
(°,м/с) 
Видим.   Явления Облачность Т
(°С)
Тd
(°С)
f(%) Тe
(°С)
Pmin
(гПа)
dP
(гПа)
Po
(мм)
O2
(г/м3)
Тmin Tmax R s Состояние
почвы
00 24.04.17 тихо ()   н/о  {ливн. осадки}  10/10 600 м кучево-дожд. 
[Cb cap]
+16 +11 72 +21  1008.4  -0.1  682  257           
06 24.04.17 160 (Ю) 20000 м    5/3 1000 м средняя 
[Cu hum|Ac trans]
+21.2 +10.6 51 +25  1005.3  -0.3  681  253           
09 24.04.17 180 (Ю) 20000 м  гроза без осадков  9/6 600 м кучево-дожд., средняя 
[Cb cap|Ac trans]
+22.2 +10.2 46 +26  1003.4  -1.4  680  252           
12 24.04.17 290 (З) 20000 м  в посл. час гроза{ливн. осадки}  6/3 600 м кучево-дожд., средняя 
[Cb cap|Ac trans]
+23.2 +10 43 +26  1001.8  -1.1  680  250           
18 24.04.17 100 (В) н/о    ясно 
+13.6 +4.8 55 +13  1009.3  2.6  682  261    +24.4       
21 24.04.17 140 (ЮВ) н/о    ясно 
+11.2 +4.6 64 +10  1012.8  2.3  684  264           
00 25.04.17 140 (ЮВ) н/о    ясно 
+10.8 +5.1 68 +10  1014.9  1.9  685  265           
03 25.04.17 140 (ЮВ) 20000 м    ясно 
+4.6 +2.9 89 +4  1019.4  1.5  687  272           
09 25.04.17 тихо ()   20000 м    3/3 1000 м 
[Cu med, cong]
+16.2 +5.1 48 +16  1017.4  690  261           
12 25.04.17 130 (ЮВ) 20000 м    3/3 1000 м 
[Cu med, cong]
+19.2 +4.1 37 +20  1015  -1.1  687  258           
15 25.04.17 280 (З) 20000 м    3/3 1000 м 
[Cu med, cong]
+18.2 +1.9 34 +19  1015.5  687  259           
18 25.04.17 130 (ЮВ) н/о    3/0 средняя 
[Ac trans]
+12 +3.8 57 +12  1019.7  1.9  689  265    +19.5       
21 25.04.17 130 (ЮВ) н/о    3/0 средняя 
[Ac trans]
+10 +4 66 +10  1022.1  1.4  690  267           
00 26.04.17 130 (ЮВ) н/о    3/0 средняя 
[Ac trans]
+9.6 +4.5 70 +9  1022.8  0.6  690  268           
03 26.04.17 130 (ЮВ) 20000 м    9/0 средняя 
[Ac trans]
+8 +3 71 +7  1026.9  693  271           
09 26.04.17 090 (В) 20000 м    9/3 600 м кучево-дожд., средняя 
[Cb cap|Ac trans]
+13.8 +4.8 55 +14  1027.5  -0.4  695  266           
12 26.04.17 120 (ЮВ) 20000 м    6/3 1000 м средняя 
[Cu med, cong|Ac trans]
+15.2 +3.6 46 +15  1025.5  -1.4  694  264           
15 26.04.17 120 (ЮВ) 20000 м    3/0 средняя 
[Ac trans]
+13.1 +1.7 46 +12  1025.8  -0.4  693  266           
21 26.04.17 120 (ЮВ) 10  н/о    ясно 
+7.8 +0 58 +5  1029.1  -0.3  694  272           
00 27.04.17 120 (ЮВ) 10  н/о    ясно 
+5.8 -0.2 65 +2  1029.5  694  274           
03 27.04.17 тихо ()   20000 м    3/0 верхняя 
[Ci fib]
+1 -1.3 85 +1  1032.8  0.9  695  279           
06 27.04.17 150 (ЮВ) 20000 м    3/0 средняя 
[Ac trans]
+11.4 +1.7 51 +11  1028.5  -0.3  695  268           
09 27.04.17 120 (ЮВ) 20000 м    3/0 средняя 
[Ac trans]
+15.6 +1.9 40 +16  1024.7  -1.4  693  264           
12 27.04.17 120 (ЮВ) 20000 м    3/0 средняя 
[Ac trans]
+17.6 +3.4 39 +18  1022.3  -2.1  692  261           
15 27.04.17 120 (ЮВ) 20000 м    ясно 
+15.4 +2.1 41 +15  1022.1  -0.5  691  263           
Время (UTC), дата Ветер
(°,м/с) 
Видим.   Явления Облачность Т
(°С)
Тd
(°С)
f(%) Тe
(°С)
Pmin
(гПа)
dP
(гПа)
Po
(мм)
O2
(г/м3)
Тmin Tmax R s Состояние
почвы

Для получения пояснительной информации подведите курсор к названию столбца.

ПОГОДА в Нахчиване - архив

Всё, что Вы хотите узнать о погоде в Нахчиване - удобно и подробно!

Выберите нужную дату (начиная с 1 января 2015* года) и нажмите кнопку "Найти".
Будут отображены архивные сводки погоды по пункту Нахчиван, начиная с указанной даты.


Отображать данные в формате CSV (для использования в таблицах Excel)


Внимание! Наш архив погоды предназначен исключительно для личного некоммерческого использования в познавательных целях. Если Вам необходимы официальные справки о состоянии погоды (для производственных, юридических, коммерческих и т.п. целей), обращайтесь в органы Росгидромета.

*Примечание: данная дата относится к архиву по метеостанциям СССР (Россия, СНГ, Балтия).
Архив по метеостанциям Зарубежной Европы и Азии (кроме Китая) хранится 10 дней, по другим регионам земного шара (Китай, Африка, Америка, Австралия, Океания) - 1 день.

Нахчиван - район местоположения метеостанции


Название, широта, долгота, высота метеостанции:
Нахчиван 39.2°ш. 45.4°д. 873 м над ур. моря [Азербайджан]

Дополнительная информация

В oтличие oт бoльшинства пoгoдных сайтoв мы публикуем пoдрoбную метеoинфoрмацию в детальнoм прoфессиoнальнoм фoрмате.

Характеристики температуры и влажнoсти вoздуха измеряются на высoте 2 м в тени вдали oт зданий и деревьев.
Скoрoсть ветра измеряется на высoте 10 м (на урoвне рoста челoвека скoрoсть ветра ниже в 1.5-2 раза). Если метеoстанция нахoдится в гoрoде или в лесу, тo скoрoсть ветра занижена на 2-4 м/с пo сравнению с oткрытым местoм. Скoрoсть ветра над акватoриями крупных рек и oзёр, а также на вершинах хoлмoв на 2-5 м/с выше, чем в oбычных услoвиях.
Атмoсфернoе давление в разных тoчках местнoсти мoжет значительнo oтличаться oт давления на метеoстанции, в зависимoсти oт услoвий рельефа (при пoдъёме на 10 м давление пoнижается примернo на 1 мм рт.ст.).